GFSNIL_sfc_wetblb_009.txt.gz
Wetbulb
40.44 40.11 39.60 39.15 38.47 38.09 38.28 38.55 39.25 39.22 39.31 39.45 39.73 39.70 39.42 38.15 38.15 37.94 37.88 37.30 37.62 38.72
40.60 39.61 39.47 38.94 38.44 38.50 38.34 40.19 39.30 39.37 39.22 39.32 39.23 39.39 38.98 37.99 37.64 37.82 37.80 37.81 38.23 38.30
40.66 40.26 39.88 38.47 38.18 38.23 38.56 38.74 39.45 39.46 38.75 38.65 39.24 39.01 38.05 37.28 37.81 37.42 38.00 39.13 38.23 38.82
40.20 39.52 38.43 38.15 38.20 38.44 38.24 38.46 38.63 38.79 38.81 38.93 38.60 38.30 37.17 36.71 37.27 37.05 37.37 38.20 38.49 39.13
40.31 38.98 37.31 37.16 37.32 37.79 37.64 38.11 38.36 38.56 38.47 38.41 38.28 37.82 36.82 36.69 37.66 37.03 37.03 38.09 38.49 39.02
39.36 38.19 37.16 37.11 36.92 36.95 37.07 37.38 37.72 38.19 37.75 37.74 38.04 37.63 37.57 37.31 37.50 37.66 37.96 38.65 38.88 39.47
38.74 38.55 38.01 37.62 36.73 36.80 37.08 37.02 36.97 37.10 37.28 37.87 38.10 38.30 38.19 37.95 37.63 37.92 39.38 40.10 40.68 40.61
39.79 38.92 37.67 36.99 36.71 36.98 36.87 37.08 36.73 36.54 37.15 37.63 37.86 39.60 37.85 38.61 38.88 39.19 39.74 40.79 41.71 42.04
38.74 38.05 37.51 37.11 36.47 36.28 36.26 35.51 35.91 35.83 36.36 36.23 39.13 44.04 45.97 45.34 40.59 40.62 40.26 40.48 40.59 41.68
38.65 37.98 37.30 37.14 36.17 35.38 34.55 34.57 34.99 35.11 35.20 35.18 35.52 44.51 46.01 46.64 41.08 39.42 37.98 38.21 39.21 40.24
38.62 38.00 37.04 35.79 35.02 34.06 34.02 34.35 34.14 34.55 34.92 34.77 36.89 44.72 45.96 46.54 39.78 37.76 38.18 38.70 39.44 39.62
38.52 37.26 36.13 34.61 33.70 33.55 34.02 33.75 34.00 34.89 34.71 33.91 34.34 43.10 45.86 44.40 38.35 37.79 37.85 39.41 40.03 40.37
38.13 37.07 35.67 34.50 33.68 33.86 33.96 34.90 35.51 35.23 34.48 37.59 35.87 41.73 44.80 43.43 38.75 36.55 38.65 40.98 41.02 44.72
36.96 36.29 35.75 34.21 33.68 33.94 33.95 34.01 33.49 33.72 33.56 33.46 35.14 36.35 44.10 44.65 39.30 40.07 40.83 40.89 40.71 41.64

GFSNIL_sfc_wetblb_012.txt.gz
Wetbulb
40.64 40.62 40.07 39.37 38.29 38.60 38.52 38.35 38.96 38.83 38.65 38.69 38.78 38.77 38.29 37.72 37.59 36.98 36.73 36.04 36.27 36.85
40.35 39.82 39.68 38.67 38.90 38.53 38.27 39.89 38.89 38.71 38.41 38.51 38.55 38.53 37.94 37.33 36.96 36.72 36.53 36.53 36.72 36.29
40.86 40.56 40.07 39.07 38.31 38.12 38.28 38.85 38.95 38.43 38.15 38.32 38.09 38.09 37.63 36.67 36.81 36.13 36.62 37.36 36.80 36.88
40.32 40.02 39.46 39.20 38.94 38.76 38.08 38.07 38.33 38.77 38.59 37.99 37.88 37.71 36.33 35.72 36.13 35.86 35.97 36.68 36.77 37.45
40.51 40.00 38.84 38.59 38.42 38.24 38.05 37.92 38.34 38.26 37.88 37.93 37.99 37.13 35.98 35.79 36.60 35.87 35.82 36.68 37.02 37.62
39.88 39.17 39.06 38.51 37.65 37.44 36.95 37.08 37.36 37.54 37.27 37.47 37.48 36.69 36.36 36.30 36.51 36.38 36.47 37.05 37.31 38.23
39.13 39.40 39.17 38.39 37.24 37.09 36.77 36.29 36.27 36.70 37.30 37.44 37.11 37.38 37.41 37.03 36.35 36.49 37.77 38.68 39.26 39.31
39.68 39.82 38.82 37.38 37.02 36.99 36.27 36.51 36.48 36.13 36.22 36.43 37.20 38.60 36.33 36.93 37.23 37.46 38.21 39.55 40.09 41.01
39.34 38.83 38.02 37.57 36.78 36.36 35.74 35.46 35.42 35.11 35.74 35.89 38.52 43.30 45.53 44.40 38.77 39.47 39.10 38.46 38.78 39.54
39.47 38.62 37.99 37.63 36.59 35.65 34.83 34.02 34.25 34.62 35.07 34.80 34.90 43.89 46.02 45.72 39.97 38.85 37.69 36.88 37.36 38.63
39.24 38.65 37.91 36.89 36.39 34.09 33.78 33.83 33.56 34.04 34.25 34.17 36.06 44.43 45.73 45.63 39.12 37.59 37.39 37.55 37.69 37.90
39.30 38.09 36.99 36.32 35.07 33.51 33.53 33.03 33.49 34.38 33.99 33.36 34.21 42.99 44.89 43.81 38.03 37.21 36.98 37.93 38.48 38.75
39.54 38.23 36.95 36.23 34.49 33.02 33.48 34.24 34.82 34.30 33.77 37.67 34.42 41.47 43.75 43.40 38.13 35.89 36.67 37.86 39.51 44.60
38.95 37.95 37.39 35.43 34.31 34.10 33.58 33.99 33.82 34.27 33.36 32.95 33.97 33.98 43.15 44.71 39.14 37.58 37.65 38.37 39.39 41.62

GFSNIL_sfc_wetblb_015.txt.gz
Wetbulb
48.31 47.46 47.86 46.81 46.60 45.80 45.90 46.17 46.42 46.09 46.23 46.20 46.33 46.36 46.41 46.15 46.23 45.95 45.43 45.05 44.91 44.67
47.16 47.31 46.56 46.37 46.51 46.64 46.30 45.99 46.06 46.17 45.79 45.78 45.65 45.87 45.90 45.54 45.39 45.55 45.45 44.95 44.91 44.35
46.52 46.85 47.00 46.46 45.13 45.38 45.76 46.31 45.63 45.44 45.55 45.38 45.31 45.41 45.23 45.21 45.38 44.37 44.87 44.46 44.14 44.33
45.90 46.15 46.20 45.58 45.70 45.69 45.80 45.69 45.26 44.93 44.78 44.76 44.67 44.80 44.49 44.60 44.27 43.33 43.85 44.17 43.70 43.74
45.69 45.73 45.60 45.56 45.50 45.73 44.97 45.15 45.17 44.84 44.56 44.36 44.39 44.49 43.82 43.46 43.51 43.33 43.12 43.43 43.66 43.46
44.80 44.82 45.29 45.33 45.27 44.91 44.96 44.53 44.59 44.42 44.01 43.74 43.84 43.70 43.54 43.40 43.42 43.41 43.29 43.37 43.58 43.99
44.29 44.99 45.32 45.41 44.78 44.33 44.48 43.93 43.88 43.98 43.71 43.63 43.62 43.40 43.20 43.12 43.31 43.26 43.40 44.11 44.50 44.70
44.74 45.15 45.12 44.59 44.21 44.04 43.65 43.67 43.61 43.13 43.16 43.44 43.10 42.80 43.32 43.32 43.45 43.65 43.93 44.72 45.27 45.75
44.04 44.05 43.94 43.77 43.48 43.09 42.83 42.70 42.53 42.49 42.43 42.00 42.10 44.59 45.82 44.99 44.75 44.57 44.32 44.48 45.23 44.95
43.26 43.04 42.90 43.13 42.85 42.51 42.18 42.00 41.82 42.01 41.99 41.89 42.80 46.01 46.73 46.66 45.50 44.82 44.93 44.51 43.67 43.17
42.83 42.65 42.64 42.37 42.15 42.41 42.11 41.46 41.32 41.42 41.69 42.15 42.24 45.38 46.65 46.46 45.39 44.82 44.76 44.07 43.76 43.39
42.92 42.47 41.98 41.65 41.74 41.88 41.26 41.11 40.84 41.33 41.15 41.35 41.87 45.38 46.37 45.65 44.71 44.16 43.74 43.80 43.87 44.09
43.13 42.74 41.68 42.26 41.61 41.48 41.49 40.63 40.91 40.48 41.45 42.03 41.94 43.78 45.52 45.33 44.25 42.66 42.64 43.50 43.98 44.79
43.26 42.63 42.83 42.25 41.67 40.69 41.03 40.49 40.30 40.34 40.48 41.01 42.50 42.14 44.12 45.03 44.16 43.06 42.45 42.33 42.91 44.10

GFSNIL_sfc_wetblb_018.txt.gz
Wetbulb
55.86 56.65 55.75 54.29 53.76 53.02 52.57 52.09 51.80 51.02 50.88 50.63 50.65 50.56 50.25 49.76 49.61 49.62 49.14 48.74 48.53 47.79
54.51 55.18 54.82 54.57 53.91 54.03 52.93 52.31 51.53 50.91 50.37 50.14 50.02 49.88 49.59 49.09 48.91 48.98 48.85 48.59 48.46 47.58
53.42 53.86 54.18 54.54 53.18 52.84 52.50 52.06 51.03 50.27 50.07 49.72 49.45 49.16 49.16 48.82 48.93 48.43 48.61 47.98 47.39 47.27
52.44 53.00 53.21 53.00 52.93 52.47 52.19 51.32 50.33 49.77 49.48 49.05 48.62 48.66 48.40 48.30 48.21 47.64 47.43 47.65 47.05 46.59
51.85 52.08 52.01 51.95 52.24 51.97 51.20 51.01 50.18 49.54 48.94 48.65 48.36 48.38 47.88 47.35 47.21 46.90 46.25 46.55 46.64 45.94
50.66 50.81 50.89 51.42 51.72 51.32 50.93 50.24 49.80 49.11 48.33 47.95 48.01 47.78 47.75 47.31 46.90 46.45 46.40 46.52 45.81 45.29
49.83 50.17 50.47 51.25 51.25 50.79 50.57 49.52 49.18 48.76 48.19 48.02 47.83 47.65 47.30 46.98 46.60 46.40 46.47 46.13 45.85 46.03
49.69 50.18 49.99 50.33 50.53 50.45 49.92 49.38 49.04 48.23 48.00 48.05 47.66 46.84 47.06 46.79 46.43 46.32 45.88 46.08 46.33 47.25
48.57 49.09 49.18 49.65 49.83 49.70 49.46 48.91 48.39 47.59 47.20 46.95 46.31 49.04 48.63 47.64 46.59 46.13 45.62 45.62 46.76 47.48
48.14 47.96 48.28 48.96 49.07 49.67 49.04 48.39 47.56 47.14 46.87 46.47 46.76 47.81 47.96 47.37 46.70 46.56 46.58 46.48 46.40 46.17
47.56 47.41 47.75 48.17 48.55 48.13 48.37 48.10 47.36 46.72 46.65 46.55 46.49 47.63 48.55 48.25 47.32 46.91 46.85 46.53 46.53 45.86
47.48 46.45 46.87 47.47 48.10 48.28 47.97 47.67 46.83 46.76 46.34 46.10 46.15 47.60 48.18 47.58 46.57 45.99 45.99 46.40 46.30 46.04
47.26 46.67 47.05 47.57 48.10 48.51 48.60 47.27 47.48 46.00 46.29 47.11 45.91 47.16 47.59 47.14 45.97 44.91 44.89 45.56 46.06 45.57
46.19 46.34 47.20 47.08 48.02 48.12 47.45 46.96 45.73 45.10 45.77 45.74 46.35 46.25 47.09 47.12 45.51 44.79 44.29 44.54 44.99 45.88

GFSNIL_sfc_wetblb_021.txt.gz
Wetbulb
60.35 59.51 58.81 59.25 57.72 55.61 54.44 53.58 54.29 53.70 53.38 53.03 53.12 52.99 52.74 52.15 51.84 51.30 50.69 50.63 50.15 49.54
57.29 58.47 57.77 58.53 59.65 56.37 55.68 54.85 54.19 53.55 52.96 52.75 52.51 52.28 51.97 50.99 50.06 50.09 49.95 49.57 49.84 48.94
55.66 56.66 57.25 57.80 58.25 56.45 56.15 55.41 53.91 53.22 52.73 52.50 51.99 51.70 51.42 50.48 50.13 49.52 49.77 49.59 48.76 48.41
53.95 54.78 54.94 56.20 57.03 56.84 56.33 55.11 53.64 52.78 52.22 51.69 51.03 50.83 49.99 49.20 49.18 48.86 48.93 49.39 48.40 47.57
52.89 53.33 53.42 54.31 55.64 56.51 55.45 54.87 53.37 52.39 51.48 50.94 50.51 50.32 49.29 48.59 48.40 47.99 47.90 47.93 47.70 46.75
51.82 51.73 52.11 52.93 54.74 55.27 54.83 53.98 52.85 52.08 50.90 50.28 49.94 49.56 49.14 48.76 48.12 47.88 47.58 47.51 46.89 46.74
50.90 51.19 51.76 52.59 53.57 54.09 54.22 53.13 52.07 51.56 50.73 50.24 49.87 49.39 48.91 48.55 48.01 47.49 47.05 46.76 47.27 46.24
51.60 50.75 50.95 51.56 52.30 53.17 53.43 52.79 51.96 50.90 50.29 50.06 49.53 48.87 48.78 48.56 47.96 47.18 46.47 46.92 46.32 47.00
50.32 49.84 49.99 50.98 50.74 52.12 52.76 52.30 51.43 50.32 49.50 48.97 48.36 51.26 51.42 49.23 47.59 47.12 46.49 46.16 46.03 46.51
48.70 48.95 49.12 49.74 50.18 51.01 52.03 51.80 50.72 50.01 49.32 48.63 48.61 52.29 51.90 50.94 47.77 47.14 46.43 45.97 46.81 46.56
48.10 47.41 48.29 48.77 48.76 50.04 51.46 50.84 50.35 49.46 49.18 48.69 48.51 51.52 50.96 49.73 47.57 47.15 47.19 47.22 47.25 46.77
47.06 45.38 46.06 47.14 48.26 49.02 50.38 50.28 49.62 49.45 48.82 48.05 48.08 50.73 50.47 48.74 46.09 46.10 46.83 47.03 46.87 46.77
46.78 44.80 44.55 46.71 48.66 49.05 49.74 49.60 49.14 48.35 48.43 49.03 47.28 50.15 50.71 49.30 46.54 45.22 45.52 46.18 46.30 48.07
44.71 43.94 44.37 46.42 48.37 49.06 49.38 49.10 48.05 47.51 47.56 47.29 47.84 48.18 50.48 49.79 45.93 45.25 44.74 44.54 44.87 46.30

GFSNIL_sfc_wetblb_024.txt.gz
Wetbulb
51.77 53.34 55.36 57.96 56.87 53.62 52.60 51.85 51.72 50.99 50.28 49.86 48.84 48.53 47.47 46.16 45.50 44.96 44.48 43.68 43.01 43.03
51.85 51.53 52.45 56.20 57.39 55.89 53.84 53.13 51.24 50.84 49.79 49.34 49.08 48.36 46.83 46.15 45.28 44.58 44.04 44.06 43.85 42.81
51.96 51.16 51.31 52.59 55.46 55.53 54.29 52.75 51.09 50.28 49.80 48.73 48.60 48.13 46.73 45.28 45.19 43.83 43.67 44.37 43.58 42.83
51.36 51.50 50.74 50.89 51.93 54.32 54.57 53.30 50.88 50.41 49.62 48.68 48.12 48.06 46.81 45.83 44.72 43.93 43.32 43.41 43.25 43.01
50.99 51.78 50.57 49.40 49.59 50.27 52.95 54.09 52.16 50.40 49.52 48.89 48.19 47.80 46.62 45.45 45.93 44.10 43.04 43.18 42.68 42.41
49.99 50.83 50.26 49.47 49.39 50.31 51.85 53.81 52.37 50.18 48.95 48.51 47.88 47.12 46.62 45.86 44.93 43.54 43.01 42.90 42.45 42.16
49.06 49.64 49.65 49.74 48.95 49.74 51.35 53.03 51.40 49.72 49.10 48.48 47.78 47.19 46.50 45.68 43.56 43.37 43.03 43.60 42.79 42.32
48.13 49.31 48.98 48.53 48.81 49.00 50.18 51.37 51.44 49.34 48.49 47.93 47.30 47.20 45.70 45.11 43.92 41.53 41.35 42.06 42.82 42.85
47.72 48.48 47.91 48.09 47.95 48.03 48.55 49.45 49.91 48.66 47.82 46.78 47.78 51.39 51.44 46.90 43.34 42.43 41.49 40.72 41.23 41.85
48.30 47.53 47.11 47.83 47.60 47.27 47.18 48.40 48.49 48.18 47.09 46.03 45.93 53.06 53.18 51.15 43.07 41.63 40.57 40.77 41.12 42.28
47.03 46.12 46.63 46.12 46.18 46.43 46.93 47.31 48.08 47.62 46.11 45.42 45.19 53.45 53.33 51.86 42.07 41.17 41.17 41.09 41.23 41.39
45.79 44.77 45.40 44.61 45.01 46.03 46.54 46.96 47.83 46.82 45.25 44.60 44.19 52.88 52.77 48.43 41.67 41.23 41.20 42.66 42.52 42.06
45.39 44.32 43.86 43.55 43.02 45.54 46.96 47.04 47.85 45.96 45.85 47.65 45.49 52.20 52.07 46.78 41.80 39.74 41.14 41.61 42.22 49.05
43.98 43.28 44.10 43.46 42.26 45.86 46.70 46.77 46.60 45.14 45.44 45.82 46.43 48.48 51.41 49.24 42.74 41.78 40.91 40.77 40.72 42.40

GFSNIL_sfc_wetblb_027.txt.gz
Wetbulb
48.68 49.65 50.26 49.90 49.63 50.86 53.39 52.78 52.79 50.84 50.93 50.41 49.33 48.92 48.08 47.68 46.37 44.65 43.97 41.76 41.29 41.15
47.74 47.97 49.31 50.04 50.25 50.08 52.22 53.81 52.13 50.64 50.50 49.70 48.51 48.82 48.06 47.40 45.79 45.61 43.60 42.38 41.57 41.29
46.76 47.30 48.46 50.09 49.84 49.42 50.08 52.18 52.02 51.20 50.20 49.17 48.45 48.54 47.37 46.93 45.68 44.52 43.13 43.56 42.07 41.08
45.48 46.69 47.91 49.31 50.21 49.52 48.83 51.11 52.86 51.48 50.23 48.79 47.87 48.00 47.13 46.49 45.46 44.54 43.28 42.87 43.04 41.79
46.45 46.98 46.72 47.81 48.73 49.33 48.92 49.90 52.13 51.09 50.41 49.05 48.61 47.92 47.11 45.63 46.15 44.40 42.95 42.72 42.34 42.37
44.79 45.61 46.69 46.97 48.03 48.88 48.84 49.08 49.91 51.21 50.21 49.85 48.77 48.16 47.00 46.40 45.91 45.03 44.13 42.97 42.78 42.07
44.37 45.98 46.64 46.51 47.26 48.44 48.30 48.41 49.32 49.03 51.12 50.15 49.10 48.15 46.86 46.10 45.10 44.13 43.88 43.80 42.60 41.93
42.71 44.91 47.22 46.34 47.46 48.03 47.70 47.92 48.69 48.97 49.53 50.01 48.89 47.96 46.13 45.57 43.64 42.89 42.41 42.65 43.19 42.35
43.45 43.20 44.72 47.52 47.89 47.47 47.22 47.21 47.83 48.07 48.49 48.73 48.65 51.59 51.20 46.82 43.10 43.27 42.11 41.46 40.71 41.93
43.19 43.47 45.47 46.79 46.03 46.52 46.08 46.79 46.20 47.34 47.89 48.08 48.22 53.10 52.82 50.49 43.97 42.03 41.87 40.66 40.04 41.10
42.73 43.36 45.19 42.78 43.23 44.72 45.91 45.58 45.43 46.21 47.03 47.73 47.48 53.38 53.43 51.71 42.71 41.55 40.27 40.26 39.53 39.54
42.78 43.31 42.55 42.05 42.37 43.28 44.07 44.80 44.48 45.69 46.62 46.66 45.93 53.08 53.39 48.55 41.74 40.07 39.53 40.22 40.15 39.94
42.08 42.42 41.66 42.05 42.27 43.08 43.73 43.97 44.80 44.86 47.02 48.17 46.01 52.76 53.34 45.20 42.55 39.70 39.90 39.89 41.30 46.92
41.57 41.52 41.68 42.03 42.84 42.70 42.61 42.60 43.83 45.11 46.69 46.07 46.71 50.64 52.22 49.07 42.70 41.34 40.63 40.42 40.65 43.68

GFSNIL_sfc_wetblb_030.txt.gz
Wetbulb
42.65 45.13 46.23 46.26 45.73 46.08 46.54 48.14 49.43 51.10 51.03 51.60 51.56 51.05 50.22 47.96 47.61 46.67 46.09 42.70 41.44 42.30
41.44 45.04 45.47 45.73 46.19 47.04 47.42 49.19 49.04 49.05 51.07 51.53 51.61 51.14 50.01 49.14 46.73 46.56 45.98 44.66 43.43 42.36
43.18 44.88 45.28 45.78 45.86 46.88 47.36 46.38 47.44 47.84 49.48 50.79 51.19 50.68 49.76 49.25 47.42 45.81 45.32 45.38 42.66 40.91
44.08 44.66 44.11 44.96 46.38 47.26 46.77 46.66 47.55 48.40 48.57 50.07 50.52 49.39 49.53 49.04 47.69 45.28 44.87 45.14 43.16 41.73
43.79 44.26 42.64 44.09 45.70 47.18 46.11 46.62 47.17 47.83 48.68 50.20 50.99 50.22 48.92 48.24 47.81 44.96 44.31 43.50 43.09 42.15
41.81 41.92 42.90 43.70 45.75 46.93 46.35 45.93 46.12 46.74 47.33 48.52 49.49 48.95 49.07 48.89 47.61 45.26 45.09 44.21 43.56 42.92
41.50 42.08 42.66 43.99 44.73 45.92 46.67 45.37 45.34 45.84 46.92 48.00 49.04 49.39 49.66 48.79 47.90 46.15 45.38 44.45 44.26 42.99
40.92 42.25 42.21 42.48 44.57 45.02 45.95 46.92 47.28 46.09 46.88 47.44 48.59 49.58 49.52 48.96 47.71 45.59 44.53 43.03 43.36 42.98
41.65 41.45 40.65 42.16 42.28 45.04 47.03 46.39 46.39 45.85 45.96 46.44 48.38 50.85 52.45 50.70 46.95 45.08 43.39 41.69 41.99 43.00
40.99 40.48 41.14 41.75 44.49 44.28 44.01 43.27 43.65 44.75 45.52 45.61 46.61 50.41 52.04 53.57 46.87 44.54 43.53 42.72 41.56 41.87
40.04 40.48 40.49 40.96 41.64 40.47 41.08 41.61 42.22 43.45 44.75 44.27 45.74 49.48 51.58 53.50 47.14 44.60 43.25 42.21 41.37 42.14
40.31 38.83 39.35 39.17 40.13 40.66 41.13 41.47 41.80 43.29 44.51 43.19 43.61 48.39 50.76 52.23 46.62 43.21 41.44 40.82 41.07 40.98
39.79 38.59 38.26 39.04 39.34 40.58 41.14 41.60 42.63 42.95 44.18 44.50 43.70 48.76 50.79 51.50 44.38 40.99 40.04 39.36 40.31 45.88
40.23 38.36 38.71 37.70 39.18 39.85 40.07 41.07 41.49 41.77 43.04 43.31 45.25 47.15 50.01 52.14 43.89 41.61 39.60 39.40 40.49 42.69

GFSNIL_sfc_wetblb_033.txt.gz
Wetbulb
40.64 40.63 43.24 44.59 44.20 43.56 44.44 45.48 46.74 46.18 46.02 47.03 48.60 49.63 49.29 49.29 48.51 48.78 47.56 46.89 44.87 42.59
40.00 39.89 42.41 43.31 43.74 43.79 44.76 47.36 47.03 45.93 45.44 46.10 47.56 49.02 49.29 49.02 48.27 48.28 47.93 47.36 45.16 44.65
39.95 40.45 41.42 41.43 41.90 43.33 44.59 46.01 45.65 45.39 45.54 45.74 46.57 47.81 48.82 48.57 48.90 47.92 46.98 47.65 45.49 43.30
40.41 41.70 40.95 41.70 42.71 43.22 43.55 45.44 45.49 45.74 45.76 45.68 46.22 47.60 47.90 48.14 48.82 48.76 47.77 47.14 45.44 43.59
41.29 41.71 40.29 41.28 41.77 42.66 42.79 45.57 45.78 45.71 45.71 45.70 46.27 46.24 47.00 47.07 48.18 48.29 47.03 46.59 45.42 44.33
38.80 38.79 39.49 40.33 41.83 42.13 43.21 44.49 45.17 45.80 45.07 45.47 46.04 45.73 46.25 47.27 47.51 48.18 47.83 47.55 45.50 45.05
37.80 38.55 39.43 40.19 41.06 41.71 42.87 43.32 44.32 44.69 45.27 45.78 45.87 46.36 46.52 46.49 47.08 47.83 47.75 47.87 47.17 45.98
39.39 39.46 38.98 39.44 40.50 41.35 41.74 42.43 44.10 45.08 45.01 45.39 46.04 46.75 45.91 45.88 46.30 47.36 47.39 48.41 47.50 45.46
39.69 39.91 39.47 39.58 39.61 39.69 40.57 44.02 44.83 44.01 44.11 43.75 45.14 48.06 49.27 49.00 46.16 48.07 48.12 46.46 45.88 45.13
40.10 39.67 39.74 39.66 39.47 39.80 40.83 40.80 41.85 41.51 41.79 41.70 42.62 47.75 49.22 49.55 46.32 46.83 48.87 47.37 45.34 43.96
39.87 39.56 39.32 38.66 38.59 38.02 38.10 38.96 40.09 40.76 41.02 41.24 42.72 47.32 48.56 48.95 46.30 47.12 49.16 46.52 44.75 43.41
39.87 39.03 38.14 37.53 37.37 36.95 37.61 38.72 39.60 40.57 40.42 40.70 41.71 46.43 47.54 47.56 45.37 47.47 46.86 44.56 43.94 43.58
39.21 38.21 38.37 38.28 36.70 37.33 37.40 38.97 39.73 39.32 40.25 43.05 42.15 45.58 47.43 46.81 45.47 46.29 44.51 43.53 43.29 46.94
39.49 38.82 38.73 39.07 37.00 35.42 36.27 36.98 36.75 38.39 40.14 41.55 42.60 42.73 46.25 46.98 46.74 44.65 42.24 41.06 40.71 43.56

GFSNIL_sfc_wetblb_039.txt.gz
Wetbulb
46.20 46.60 46.33 46.35 46.44 46.63 47.14 47.27 48.34 48.25 49.44 49.50 50.35 51.49 51.39 51.04 50.94 51.21 51.05 50.92 50.95 47.99
45.64 45.37 45.56 45.89 46.23 46.44 46.94 46.71 47.49 48.19 48.34 48.80 49.28 51.25 51.28 50.49 50.15 50.82 50.96 51.23 51.27 50.68
45.09 45.07 45.20 45.53 44.86 45.33 46.02 46.23 46.78 47.10 47.35 47.68 48.38 49.84 50.42 50.43 50.41 50.11 50.38 50.50 50.91 51.12
45.25 44.71 45.23 44.50 45.04 45.43 45.39 45.37 45.62 46.04 46.26 46.54 47.41 48.64 49.28 49.18 49.31 49.16 49.39 49.82 49.56 50.17
45.07 44.52 44.33 44.22 44.59 45.13 43.82 44.78 45.00 45.23 45.18 45.78 47.03 47.18 47.24 47.46 48.36 48.72 48.24 48.45 48.23 48.43
43.34 43.52 43.73 43.59 44.28 44.11 43.60 43.46 44.32 44.27 44.40 45.14 45.94 46.14 47.03 47.69 48.09 48.27 47.28 47.18 47.18 47.40
42.07 42.72 43.48 43.93 44.15 43.68 43.48 42.94 43.54 44.11 43.86 44.75 45.19 46.32 47.31 47.85 47.72 46.84 46.64 46.95 47.22 47.46
40.56 41.50 42.08 42.62 43.20 43.27 43.11 42.95 43.25 43.06 43.42 44.09 44.92 46.09 46.07 46.77 47.04 46.38 46.11 46.44 46.71 47.64
39.35 39.65 40.05 40.90 41.35 42.18 42.15 41.92 42.78 42.56 42.55 42.65 44.46 46.59 46.80 46.67 46.22 46.21 45.31 44.81 45.84 47.16
38.83 38.67 39.11 39.75 39.99 40.47 41.46 42.00 42.29 42.32 42.29 42.31 44.06 46.23 46.73 46.88 46.04 45.08 44.48 44.37 45.12 46.02
38.49 37.53 38.58 38.98 38.85 39.54 40.56 41.19 41.65 41.74 41.74 41.87 42.61 45.23 46.31 46.60 45.24 44.66 44.16 44.43 44.77 44.22
38.61 37.89 38.45 37.69 37.71 38.72 39.59 39.36 40.21 40.86 40.77 40.74 41.51 44.36 45.19 44.47 43.24 43.08 43.75 44.93 44.52 44.60
39.30 39.18 37.96 36.52 37.43 38.56 39.48 39.74 40.41 39.99 40.89 42.10 41.19 43.57 43.91 43.39 42.68 42.38 43.16 44.32 44.78 46.37
40.26 39.13 38.14 38.09 37.64 38.27 38.98 38.63 39.53 39.41 39.51 40.19 40.64 40.72 42.46 43.39 42.38 41.73 42.35 42.31 44.23 45.45

GFSNIL_sfc_wetblb_042.txt.gz
Wetbulb
47.97 48.00 48.28 48.70 49.06 48.60 48.65 49.26 50.44 50.65 50.37 50.07 49.87 49.90 50.91 51.49 53.02 53.16 52.11 52.11 52.70 53.14
46.93 46.96 47.62 47.78 48.22 48.83 48.57 48.72 49.04 49.15 49.21 49.41 49.68 49.48 49.77 50.00 51.86 52.41 51.75 51.59 52.15 52.55
46.26 46.70 47.00 47.16 46.88 47.52 47.96 48.26 48.33 48.02 48.20 48.62 48.96 48.89 48.94 49.56 51.94 51.40 51.39 51.17 51.22 51.69
45.69 46.12 46.72 46.48 46.87 47.29 47.24 46.80 46.92 47.21 47.61 47.84 47.69 48.26 48.10 48.37 49.53 49.41 49.94 50.21 50.34 50.65
45.09 45.36 45.25 45.45 45.96 46.54 46.25 46.84 47.09 46.62 46.56 46.95 47.24 47.67 47.27 47.62 47.94 48.04 48.12 48.85 49.71 49.76
43.20 43.18 43.24 43.94 44.67 45.23 45.13 46.10 46.14 45.71 45.75 46.08 46.40 46.71 47.37 47.46 47.07 47.13 47.70 48.31 49.12 49.49
42.16 42.44 42.57 43.10 43.44 43.62 44.18 43.76 44.65 45.39 44.76 45.53 45.91 46.62 46.72 46.75 47.25 48.28 48.78 48.90 49.31 49.05
42.51 42.28 42.00 41.70 42.13 42.93 42.98 43.10 43.67 43.75 44.17 44.76 45.11 45.11 44.56 46.19 47.22 47.38 47.61 48.15 48.34 48.52
41.89 42.47 41.63 41.54 41.29 41.58 41.22 41.57 41.77 41.68 42.90 42.84 43.82 45.93 46.19 46.91 46.32 46.60 46.56 46.15 47.05 47.66
40.51 40.87 40.46 40.10 40.14 40.38 40.68 41.14 40.92 41.44 42.04 42.20 43.53 45.79 46.29 46.90 46.74 46.18 46.16 46.34 46.75 46.64
40.60 39.35 39.88 39.74 39.48 40.18 40.12 40.44 40.45 41.17 41.36 42.03 43.27 45.14 45.83 46.38 46.09 45.81 45.99 46.38 46.48 46.22
38.99 38.64 39.44 39.29 39.58 39.41 40.35 38.57 40.30 40.57 40.99 40.90 41.92 44.57 45.02 45.40 45.10 44.68 45.03 45.55 45.80 45.33
39.20 39.88 38.70 39.27 39.48 39.61 39.17 39.16 39.02 40.31 40.84 42.22 41.25 43.61 44.63 44.57 43.83 42.90 43.41 44.34 44.56 45.89
39.69 39.39 39.61 39.71 39.48 39.48 38.68 39.13 38.59 39.17 40.36 40.70 41.69 41.77 44.01 44.34 43.13 42.26 41.84 42.37 43.51 44.76

GFSNIL_sfc_wetblb_048.txt.gz
Wetbulb
42.09 41.64 41.94 41.85 42.91 43.32 43.52 44.24 44.27 45.37 45.09 45.40 45.80 46.11 45.71 45.37 44.71 44.26 44.45 45.15 45.84 46.38
41.20 41.39 42.02 42.43 43.37 43.75 43.96 45.40 45.54 44.94 45.09 45.37 45.67 45.58 45.05 44.61 43.59 44.35 45.05 45.05 44.40 46.15
41.06 41.69 42.46 42.73 42.12 42.53 43.04 43.32 43.26 43.45 43.93 44.53 45.13 44.42 43.67 43.69 44.30 44.09 44.82 45.62 43.99 44.79
41.09 41.95 42.42 42.17 42.08 42.25 42.48 42.52 42.44 42.66 42.74 42.85 43.15 44.05 44.14 43.98 44.26 43.16 44.09 45.46 44.59 44.19
41.80 41.87 41.25 41.59 42.07 42.48 41.93 42.56 42.23 41.98 41.56 41.54 41.83 42.32 42.70 43.30 43.74 42.88 43.30 44.50 44.84 44.15
40.72 40.85 40.98 41.16 41.43 41.92 40.96 40.74 41.15 41.78 41.11 40.59 40.79 40.96 41.56 42.27 43.45 43.06 43.56 44.02 43.54 44.63
39.88 40.38 40.56 40.43 40.22 40.41 41.21 40.83 41.19 41.76 41.62 41.37 41.01 40.80 41.15 41.69 41.93 42.00 43.14 44.51 44.72 44.46
39.71 39.51 39.31 39.54 40.29 40.59 40.97 40.62 41.08 40.75 41.01 41.19 41.22 41.65 40.76 41.03 41.23 41.51 41.80 43.44 44.32 44.50
38.81 38.76 38.52 39.51 39.73 39.70 39.67 40.01 40.28 40.12 40.40 40.36 41.77 44.02 45.12 43.59 40.98 41.19 41.28 41.59 43.23 43.67
38.37 38.11 38.87 39.42 39.45 39.13 38.97 39.57 39.19 40.28 40.37 40.11 40.93 44.68 45.80 45.13 41.95 41.17 41.36 41.98 42.77 43.48
38.45 38.11 38.54 38.64 37.99 38.34 39.17 39.03 39.85 40.04 40.15 39.17 39.91 44.16 44.50 44.95 41.83 41.40 41.66 42.61 43.02 42.93
38.35 37.43 37.85 36.91 37.33 38.42 38.65 39.14 39.73 40.34 38.68 38.19 39.03 43.36 43.54 43.26 40.91 40.73 41.21 42.56 43.05 43.09
37.97 37.50 37.36 37.53 37.64 38.61 39.13 39.02 39.68 40.00 39.20 40.37 38.99 42.33 43.33 42.64 40.64 39.42 40.30 42.03 41.73 45.13
37.99 37.87 37.92 37.87 38.37 38.28 38.33 39.05 39.06 39.42 39.02 38.51 38.74 38.49 43.08 43.72 40.48 39.95 39.68 40.14 39.95 41.47

GFSNIL_sfc_wetblb_054.txt.gz
Wetbulb
37.15 36.97 37.19 37.09 37.25 37.02 37.34 38.25 39.44 39.75 39.92 40.00 40.79 40.93 40.23 39.85 39.97 40.14 40.76 39.91 40.64 41.59
36.59 36.74 36.82 37.27 37.23 37.54 37.97 40.44 41.29 39.95 38.93 39.16 39.25 39.66 39.39 39.72 39.37 39.19 39.50 40.29 40.51 40.77
36.45 36.93 37.23 36.82 36.54 37.07 37.69 38.02 38.47 38.74 39.07 39.35 39.71 39.98 39.65 39.36 39.70 38.67 39.57 40.31 39.83 40.51
36.34 36.68 36.40 36.39 36.97 37.13 37.48 37.70 38.57 39.15 39.24 39.11 38.97 39.05 38.68 38.81 38.95 38.11 38.26 38.84 38.96 39.60
36.12 36.39 35.70 35.45 35.91 36.82 37.37 38.49 38.24 38.55 38.59 38.67 38.89 39.10 38.42 38.38 39.29 38.64 38.08 38.34 38.35 38.55
35.65 35.21 34.72 35.09 36.26 37.58 37.52 37.66 37.97 38.27 38.25 38.34 38.76 38.86 38.70 38.69 38.79 38.72 38.69 38.75 38.27 38.37
34.39 34.66 35.02 35.63 36.96 37.11 37.52 37.01 37.79 38.44 39.49 39.39 39.04 38.93 38.93 38.99 38.66 38.59 39.97 40.08 39.45 38.99
35.14 35.17 35.64 36.29 36.69 37.17 38.16 38.76 38.78 38.90 39.36 39.20 39.07 39.81 39.94 39.64 39.32 40.67 39.47 40.56 40.88 40.65
35.77 35.32 35.72 36.07 36.54 37.10 38.03 38.38 38.36 38.31 38.35 38.10 39.35 42.84 44.15 43.19 40.90 41.12 41.09 39.43 41.02 41.45
34.45 35.03 35.52 36.71 37.38 36.17 36.94 37.75 37.68 38.02 38.39 38.30 39.03 43.60 44.92 45.14 42.23 41.34 40.83 40.97 39.91 40.55
34.62 34.83 36.21 36.64 36.37 36.82 37.42 37.35 37.83 38.14 38.47 38.44 39.26 43.99 45.17 45.58 42.44 41.27 40.32 39.72 39.76 40.48
34.72 34.66 36.28 35.87 36.31 37.07 37.41 37.62 37.91 38.58 38.66 38.71 39.35 43.83 45.06 44.17 41.56 40.64 39.55 39.65 39.34 39.65
34.97 35.64 36.07 36.42 36.84 37.58 37.75 37.77 38.80 38.97 39.74 41.72 40.86 43.58 44.55 43.86 41.47 39.39 38.27 38.34 39.09 43.30
35.66 36.72 37.11 37.16 37.42 37.63 38.43 38.46 38.47 38.80 39.72 40.22 41.04 41.41 44.46 44.84 42.34 40.08 38.13 37.42 37.39 38.99

GFSNIL_sfc_wetblb_060.txt.gz
Wetbulb
35.43 35.30 35.32 35.20 35.24 34.61 34.54 35.31 36.71 37.36 37.20 37.14 37.61 38.05 37.76 37.06 37.45 36.92 36.49 35.52 36.10 37.49
35.10 35.01 34.75 34.62 34.37 34.89 35.47 37.81 38.25 37.23 37.03 37.98 38.00 37.76 37.42 37.38 37.08 37.36 36.91 36.70 36.32 36.14
34.68 34.54 34.74 34.63 34.65 35.00 35.76 35.79 36.48 36.64 36.61 36.75 37.06 36.90 36.41 36.46 37.13 36.60 36.81 37.30 36.43 36.36
34.24 34.58 34.37 34.00 34.33 34.89 35.26 35.33 35.86 36.45 36.29 36.32 36.47 36.74 36.23 36.26 36.49 36.07 36.42 36.77 36.59 36.69
34.13 34.16 33.07 32.83 33.43 34.60 34.92 36.10 35.91 35.95 35.91 36.14 36.36 36.54 36.02 36.05 38.04 37.66 37.52 37.01 36.65 36.67
33.33 32.70 32.55 33.33 34.55 34.98 35.15 35.10 35.45 35.66 35.40 35.86 36.44 36.77 37.94 38.57 38.32 38.41 38.17 38.09 37.74 37.65
32.19 32.58 33.35 34.10 34.49 34.63 34.75 34.62 34.93 35.49 35.93 36.61 37.73 38.55 38.63 38.51 38.25 38.45 38.72 38.91 38.86 38.63
32.49 32.69 32.79 33.55 34.20 34.51 34.75 35.35 35.58 36.58 38.05 38.28 38.44 38.95 38.71 39.40 39.60 39.44 39.08 39.15 39.29 39.76
32.92 33.00 33.28 33.51 33.84 34.22 34.54 35.01 37.53 37.46 37.66 37.63 38.89 42.78 44.49 43.95 42.36 42.74 42.33 41.17 41.41 41.53
32.37 32.43 32.84 33.53 33.64 33.72 33.85 36.19 36.99 37.39 37.84 37.84 38.68 43.64 45.50 46.34 44.29 43.51 43.34 42.99 41.93 42.01
31.71 31.99 32.90 33.04 33.04 33.82 35.37 36.52 36.95 37.44 38.07 38.50 39.61 44.82 46.10 46.77 44.37 43.82 43.17 43.18 42.59 41.88
32.00 31.87 32.38 32.34 34.19 35.55 36.38 36.75 37.23 38.61 39.37 39.37 39.64 44.16 45.91 44.99 42.57 42.44 42.35 43.07 42.54 41.82
32.23 32.16 32.41 34.37 35.01 36.59 37.19 38.01 39.18 39.02 39.53 41.30 40.24 43.31 45.15 45.11 43.06 41.76 41.99 43.15 42.17 44.43
32.57 32.52 34.64 35.77 36.51 37.31 37.45 38.47 38.27 38.39 39.17 39.82 41.06 42.21 44.69 45.76 43.29 43.17 42.52 41.85 40.81 40.42

GFSNIL_sfc_wetblb_063.txt.gz
Wetbulb
42.42 43.56 42.95 42.40 42.05 41.89 41.95 42.51 43.14 42.78 42.99 42.75 42.69 42.37 42.21 41.90 41.86 41.93 41.55 41.07 41.12 41.13
42.59 41.86 41.68 41.87 41.94 41.96 42.10 41.83 42.42 42.42 41.79 41.74 41.47 41.32 41.26 40.86 40.80 41.26 41.13 40.88 41.07 40.84
41.57 41.36 41.52 41.62 41.27 41.14 41.33 41.49 41.12 40.61 40.66 40.52 40.54 40.60 40.65 40.26 40.69 40.24 40.59 40.74 40.43 40.50
41.13 41.23 41.19 40.49 40.41 40.50 40.53 40.12 39.59 39.70 39.73 39.52 39.56 40.16 40.00 39.96 39.99 39.48 39.79 40.29 39.43 39.09
40.34 40.39 39.56 39.54 39.66 39.58 38.97 39.63 39.25 39.26 38.97 39.05 39.26 39.79 39.47 39.06 39.65 39.20 38.94 39.31 39.45 39.23
39.25 38.92 38.95 38.72 38.87 39.03 38.71 38.81 39.06 38.88 38.48 38.59 39.12 39.31 39.71 39.70 39.54 39.48 39.76 39.93 39.59 39.62
38.45 38.44 38.10 38.29 38.25 38.01 38.30 38.00 38.37 38.77 38.79 38.97 39.15 39.62 40.01 39.75 39.92 40.11 40.31 40.38 40.06 39.77
37.92 37.78 37.50 37.26 37.44 37.78 37.84 38.16 38.54 38.47 38.85 40.01 40.00 40.03 40.21 41.00 41.04 40.75 40.88 41.42 41.17 40.85
36.69 36.70 36.38 36.65 36.79 37.10 37.48 38.06 38.34 38.15 39.18 39.24 40.05 42.89 44.70 44.46 42.77 43.10 42.69 42.31 43.33 43.76
35.88 35.31 35.65 36.19 36.37 36.47 37.05 37.69 37.93 38.55 39.01 38.94 39.95 43.89 46.05 46.45 44.01 43.45 43.44 43.33 43.35 43.62
35.13 34.69 35.56 35.81 35.87 36.60 37.50 37.74 38.16 38.34 38.97 39.31 40.56 45.02 45.93 46.24 43.79 43.06 42.68 42.67 42.88 42.46
34.94 34.50 35.04 35.08 35.77 36.81 36.67 37.55 37.98 38.87 39.40 39.43 39.87 44.11 45.50 44.82 42.97 42.29 42.50 43.06 43.29 43.26
34.93 34.81 34.74 35.35 35.94 36.74 37.16 37.60 38.24 38.69 39.68 41.10 40.76 43.18 45.32 44.34 42.27 41.81 42.15 42.95 43.45 46.37
35.09 35.00 35.68 36.52 37.18 37.42 37.41 37.53 38.06 38.66 39.42 39.92 40.94 42.39 44.20 45.01 42.57 42.01 42.10 43.08 43.53 43.48

GFSNIL_sfc_wetblb_066.txt.gz
Wetbulb
47.99 49.36 48.50 47.98 47.39 46.81 46.70 46.69 46.94 46.36 46.19 45.93 45.80 45.58 45.20 44.69 44.56 44.83 44.52 44.35 44.43 44.28
48.27 47.43 47.24 47.22 47.11 46.70 46.50 45.76 45.68 45.55 45.06 44.78 44.62 44.60 44.61 43.96 43.87 44.35 44.44 44.34 44.44 43.94
47.30 46.99 46.86 46.62 45.76 45.43 45.29 45.28 44.61 44.12 43.94 43.92 44.06 44.17 44.14 43.72 44.13 43.74 43.94 43.96 43.51 43.16
46.78 46.40 46.02 45.19 44.90 44.69 44.39 43.84 43.24 43.02 42.95 42.99 43.27 43.88 43.54 43.48 43.61 42.97 42.78 42.72 41.80 41.32
45.65 45.46 44.71 44.34 44.04 43.84 43.09 43.37 42.74 42.54 42.42 42.78 43.08 43.51 43.10 42.71 42.81 41.69 40.55 40.80 40.81 40.75
44.70 44.35 43.67 43.10 42.99 42.82 42.27 42.03 42.19 42.20 42.10 42.30 42.74 42.83 43.15 42.87 41.70 41.01 40.39 40.66 40.92 41.11
43.60 43.02 42.50 42.30 41.96 41.54 41.75 41.38 41.54 42.22 42.40 42.63 42.87 42.81 42.84 41.99 41.03 40.99 41.54 42.20 42.24 42.22
42.48 42.22 41.69 41.20 41.05 41.23 41.33 41.50 42.05 42.19 42.49 42.79 42.29 42.15 42.29 42.32 42.25 42.39 42.74 42.91 42.80 43.15
41.19 40.84 40.59 40.40 40.28 40.70 40.97 41.56 41.99 41.51 41.21 40.96 41.84 43.89 44.86 44.55 43.61 43.92 44.21 42.90 44.96 45.26
40.17 39.67 39.61 39.75 39.92 40.11 40.45 40.89 39.03 39.18 39.56 39.63 41.00 44.27 45.72 46.11 44.50 44.86 44.92 44.63 45.29 43.77
39.51 38.97 39.18 39.24 39.36 39.99 40.56 38.94 38.59 39.08 39.77 40.22 40.90 44.37 45.53 46.10 44.61 44.19 43.38 44.48 43.60 42.79
38.97 38.36 38.41 38.34 38.82 39.95 39.05 39.06 38.99 39.60 39.61 39.98 40.88 44.03 45.22 44.67 43.45 43.30 43.47 43.65 43.08 43.40
39.00 38.33 37.89 38.46 38.65 38.13 38.30 38.76 38.59 38.62 39.94 41.44 40.51 43.06 44.79 44.19 42.94 41.74 43.05 41.81 43.48 45.63
38.92 38.23 38.57 38.62 37.60 37.57 37.70 38.19 38.03 38.59 39.60 39.71 40.78 41.58 44.13 44.32 41.97 41.73 40.58 40.59 42.56 42.55

GFSNIL_sfc_wetblb_069.txt.gz
Wetbulb
51.43 50.67 50.21 49.92 49.38 48.69 48.49 48.54 49.03 47.97 47.33 46.72 46.52 46.81 46.47 46.00 45.83 45.65 45.25 45.18 45.13 45.07
49.73 49.43 49.09 49.02 49.04 48.63 48.48 47.81 47.32 46.75 45.99 45.66 45.30 45.14 45.45 45.24 44.49 44.93 44.84 44.69 45.11 44.79
49.09 49.01 48.82 48.61 47.75 47.49 47.07 46.81 46.02 45.57 44.87 44.91 44.23 44.27 44.63 44.61 44.82 44.39 44.85 45.06 44.37 44.42
48.33 48.28 48.06 47.46 47.16 46.76 46.30 45.26 44.47 44.18 44.18 43.58 43.40 43.39 43.61 43.60 44.09 43.86 43.82 43.36 42.64 42.39
47.64 47.61 46.98 46.65 46.36 45.66 44.31 44.41 43.64 43.24 42.69 42.45 42.95 43.20 43.06 42.83 43.39 42.91 41.74 41.72 41.88 41.78
46.68 46.51 46.00 45.32 44.62 44.08 43.41 42.87 42.79 42.52 42.10 42.21 42.86 42.87 43.30 43.19 42.61 41.98 42.33 42.14 41.50 41.50
45.70 45.59 44.64 43.79 43.27 42.84 42.61 41.92 41.91 42.19 42.25 42.90 43.05 43.07 42.12 42.03 41.62 42.01 42.55 42.75 42.58 42.29
45.14 44.15 43.19 42.54 42.34 42.12 41.76 41.86 42.08 41.98 42.49 42.73 42.28 41.92 41.86 42.22 42.11 42.07 42.56 43.53 43.28 43.40
43.01 42.27 41.71 41.57 41.18 41.08 41.11 41.39 41.68 41.72 41.09 39.73 40.69 43.19 44.28 43.79 42.35 42.93 43.03 43.00 44.09 44.36
42.02 41.10 40.87 40.84 40.43 40.55 40.46 40.97 41.01 40.65 39.68 39.42 40.38 43.77 45.02 45.47 43.40 43.37 43.10 43.72 43.71 43.92
41.17 40.24 40.20 39.94 39.54 39.75 40.16 40.28 39.53 39.27 39.58 39.72 40.60 43.85 44.96 45.64 43.34 43.47 43.52 43.55 43.57 43.29
40.28 39.47 39.38 38.83 38.91 39.39 39.46 37.99 38.12 39.07 38.77 38.84 40.03 43.48 44.62 43.97 42.67 42.54 42.50 42.61 43.67 42.70
40.19 39.53 38.76 38.92 38.90 39.73 38.45 37.29 38.25 38.13 39.10 40.61 39.67 42.59 44.04 43.81 42.34 41.64 41.04 41.34 42.02 42.63
40.26 39.55 39.21 39.03 39.74 38.99 37.30 37.24 37.71 38.26 39.16 39.51 40.38 41.38 43.83 44.34 41.70 40.70 40.11 40.31 40.36 40.38

GFSNIL_sfc_wetblb_072.txt.gz
Wetbulb
46.94 45.54 44.84 44.03 43.60 42.91 42.68 43.02 43.89 43.28 42.67 42.08 41.93 41.37 40.67 39.51 39.33 39.21 38.66 37.94 38.00 39.24
44.23 44.13 43.60 43.34 42.90 42.92 43.27 44.82 43.01 42.43 41.68 41.23 40.88 40.48 39.58 38.57 38.32 38.84 38.75 39.00 38.75 39.20
43.62 43.83 43.38 42.71 42.20 42.23 42.21 42.32 41.90 41.17 40.40 40.04 39.89 39.42 38.53 37.73 38.58 38.65 39.30 40.52 38.89 38.78
42.71 42.87 42.47 41.95 42.09 41.90 41.46 40.80 40.10 39.98 39.49 38.96 38.39 38.26 37.59 37.49 38.32 38.67 38.85 39.30 40.68 41.44
42.41 42.28 41.25 41.06 40.96 40.87 39.31 39.51 39.29 38.95 38.52 38.40 38.41 37.89 37.49 37.81 38.97 38.84 38.76 40.62 40.77 40.57
41.21 41.00 40.40 39.80 39.51 39.01 38.40 38.00 38.07 38.39 37.76 38.32 38.83 39.19 39.58 39.65 40.00 40.90 40.66 40.70 40.45 40.67
40.32 40.07 39.11 38.84 38.42 38.38 38.47 37.91 37.53 37.82 38.71 39.12 39.72 39.32 39.31 39.44 40.04 40.50 40.97 41.41 41.54 41.40
39.88 39.08 38.30 37.87 38.00 37.97 37.67 37.88 38.02 38.55 38.84 38.89 38.33 39.53 39.37 40.15 40.31 40.67 40.96 41.70 42.00 42.54
38.72 38.20 37.67 37.48 37.14 36.48 36.26 36.33 37.58 37.39 37.64 36.44 39.15 43.00 43.71 43.05 41.30 41.79 41.86 41.80 43.00 42.35
38.07 37.53 37.12 36.79 36.28 35.32 35.04 35.19 35.72 35.27 36.22 36.91 38.92 43.40 44.61 45.03 42.30 42.38 42.21 42.31 42.33 41.44
37.08 36.27 36.20 35.62 35.02 34.48 34.87 34.91 33.99 35.36 37.45 37.76 38.56 42.89 43.96 44.90 42.35 42.03 41.64 42.08 41.52 41.58
36.40 35.51 35.47 34.94 33.95 34.07 34.87 33.78 36.46 37.06 36.97 37.04 37.87 42.72 44.10 43.37 41.40 40.82 41.16 41.73 40.72 40.92
36.41 35.72 35.38 34.31 33.50 34.52 34.12 35.41 37.03 36.64 37.60 39.72 38.24 42.05 43.63 43.29 41.76 39.88 40.38 39.89 40.17 42.56
36.38 35.79 35.19 33.81 34.44 33.79 34.71 36.32 36.11 37.28 37.89 37.97 39.04 40.19 43.41 44.00 40.67 40.02 38.29 38.26 38.73 39.52

GFSNIL_sfc_wetblb_075.txt.gz
Wetbulb
44.81 43.93 43.25 42.38 41.37 40.58 40.62 40.86 41.95 41.51 40.89 40.55 40.43 39.95 38.99 37.48 37.33 36.88 36.59 35.93 35.61 36.29
41.29 41.79 41.47 41.29 40.64 40.74 40.84 43.26 41.95 40.95 40.28 40.08 39.65 38.94 38.05 36.74 36.23 36.43 36.17 36.27 36.50 36.87
40.84 40.82 40.32 39.91 39.75 40.01 40.01 40.25 39.89 39.53 38.70 38.20 38.07 37.80 36.65 35.52 35.95 35.61 36.30 38.03 36.24 36.77
40.26 40.42 39.98 39.50 39.35 39.04 38.55 37.95 37.83 37.97 37.55 37.10 36.62 36.34 35.30 34.88 35.27 35.04 35.68 36.21 36.37 37.11
39.64 39.42 38.67 38.33 37.97 37.80 36.93 37.21 37.12 37.06 36.70 36.55 36.79 36.39 35.50 35.29 36.42 35.83 36.89 36.53 39.16 39.80
38.94 38.51 37.57 36.88 36.83 36.78 36.30 36.17 36.25 36.48 35.86 36.58 37.37 37.42 36.67 37.04 36.83 36.83 37.94 39.58 39.57 39.66
37.56 37.26 36.51 36.33 36.18 36.09 36.02 35.27 35.25 35.40 36.20 37.05 37.82 37.26 37.23 36.71 35.94 36.55 38.90 40.33 40.94 40.87
37.37 36.50 36.03 35.71 35.58 35.49 35.25 35.54 35.08 35.59 36.29 35.64 36.77 38.51 38.05 38.82 39.53 39.80 39.89 40.51 41.03 41.66
36.79 36.09 35.32 35.04 34.90 34.39 34.03 33.80 34.31 34.01 34.52 34.24 37.34 41.94 43.18 42.19 40.72 41.28 41.15 41.38 42.45 43.19
35.73 35.29 34.89 34.78 34.28 33.72 32.93 32.50 32.31 32.63 33.42 33.35 36.50 42.17 43.48 44.05 41.25 41.34 41.65 41.54 41.55 41.78
34.99 34.59 34.46 33.83 33.37 32.56 32.18 31.91 31.48 32.59 33.52 36.67 37.53 42.24 43.55 44.36 41.65 41.06 41.16 40.70 40.97 40.74
34.83 33.99 33.81 33.15 32.67 32.26 31.08 30.90 32.08 33.41 35.59 36.19 36.42 42.20 43.28 42.81 41.07 40.56 40.91 40.72 40.91 40.13
34.95 34.27 33.48 33.00 32.14 30.99 31.75 32.75 34.29 34.60 36.90 39.30 37.32 41.12 42.93 42.73 41.10 37.78 39.73 39.43 39.60 41.81
35.04 34.09 33.67 32.41 30.45 31.56 31.52 32.29 32.36 35.24 36.56 36.99 37.98 39.10 43.00 43.24 40.49 39.19 38.28 37.70 36.81 38.10

GFSNIL_sfc_wetblb_078.txt.gz
Wetbulb
43.68 42.90 41.86 40.76 40.05 39.69 39.75 39.73 40.61 40.38 39.74 39.64 39.42 39.00 38.11 36.47 36.32 35.60 35.15 34.51 34.21 35.08
40.12 40.52 40.25 39.61 38.97 39.12 39.17 41.84 40.40 39.33 38.78 38.56 38.17 37.59 36.58 35.41 35.00 35.00 34.53 34.48 34.54 34.55
38.99 39.22 39.13 38.77 38.32 38.30 38.20 38.14 37.48 37.25 36.87 36.68 36.42 35.99 35.01 34.13 34.47 33.74 34.13 35.71 34.16 34.38
38.47 38.63 38.03 37.62 37.27 37.03 36.61 36.28 36.47 36.57 36.12 35.76 35.43 35.11 33.91 33.41 33.60 33.42 33.53 33.93 34.26 35.38
38.70 38.21 37.00 36.92 36.54 36.25 35.72 35.93 35.85 35.80 35.44 35.18 35.11 34.77 33.97 34.23 35.00 34.19 34.20 35.02 35.46 36.56
37.27 36.74 36.13 35.58 35.55 35.42 34.87 34.66 34.81 34.92 34.25 34.60 35.13 34.92 34.85 34.60 35.04 35.37 35.39 35.92 36.09 36.49
36.08 35.89 35.15 34.84 34.52 34.49 34.48 33.85 33.67 33.84 34.48 35.04 34.98 35.47 35.76 35.58 35.19 35.65 36.89 37.18 38.65 39.60
36.09 35.20 34.35 34.14 34.30 34.12 33.78 34.03 33.75 33.77 34.03 34.09 35.34 37.01 36.42 37.44 37.45 37.94 38.57 39.79 40.92 41.08
35.31 34.64 34.03 33.91 33.76 33.19 33.22 32.92 33.07 32.77 32.49 32.97 35.90 41.01 42.43 41.39 39.84 40.29 40.32 39.70 40.75 42.17
34.31 34.31 34.06 33.73 33.17 32.86 32.15 31.60 31.00 30.73 31.33 32.17 33.31 41.36 43.03 43.28 40.86 40.94 41.10 40.74 40.55 40.35
33.97 33.75 33.57 32.88 32.49 31.62 31.16 30.42 29.67 30.71 32.25 32.72 34.57 41.73 42.87 43.66 41.07 40.17 40.68 40.40 40.33 39.88
33.97 33.21 32.95 32.32 31.84 31.34 29.73 29.87 30.97 32.62 32.21 31.86 34.08 41.70 42.81 42.18 40.29 40.50 39.60 39.41 39.63 40.22
34.07 33.29 32.64 32.25 31.17 29.84 30.53 31.47 32.61 32.77 33.31 36.82 36.41 40.30 42.02 42.03 40.59 38.75 39.88 38.73 39.43 41.84
34.04 33.10 32.87 31.30 29.44 30.40 30.23 30.37 30.37 32.38 34.79 36.40 36.36 37.84 41.70 43.21 39.98 39.06 38.26 39.10 37.43 37.31

GFSNIL_sfc_wetblb_081.txt.gz
Wetbulb
42.75 42.23 41.14 40.31 39.16 38.71 38.73 38.68 39.42 39.27 38.58 38.38 38.21 37.72 36.79 35.56 35.42 34.74 34.18 33.27 32.92 33.66
39.43 39.71 39.21 38.34 38.12 38.13 38.09 40.80 38.69 37.67 36.88 36.30 36.06 35.80 34.85 34.02 33.56 33.56 33.13 33.11 33.01 32.40
37.95 38.18 37.93 37.65 37.41 37.42 36.95 36.69 36.18 36.11 35.61 35.50 35.21 34.76 33.59 32.73 33.02 32.32 32.49 33.83 32.52 32.23
37.14 37.32 37.11 37.15 36.71 36.24 35.66 35.39 35.47 35.52 35.10 34.76 34.38 34.05 32.81 32.39 32.65 32.33 32.44 32.54 32.40 33.16
37.43 36.91 36.18 35.98 35.36 35.04 34.46 34.72 34.62 34.60 34.34 34.01 33.92 33.51 32.74 32.50 33.24 32.62 32.68 33.18 33.78 34.49
36.37 35.99 35.17 34.37 34.04 33.97 33.59 33.50 33.79 33.81 33.28 33.63 34.06 33.63 33.49 33.28 33.38 33.48 34.21 34.98 34.83 35.61
35.36 34.87 33.88 33.53 33.48 33.50 33.30 32.83 32.89 33.08 33.41 33.90 33.81 33.73 34.34 34.36 34.07 34.46 35.68 36.42 36.86 36.48
35.15 34.10 33.54 33.34 33.40 33.35 33.01 33.25 32.88 32.67 32.97 32.87 33.37 35.43 33.82 34.97 36.12 37.62 38.06 39.11 38.90 39.02
34.54 33.78 33.19 33.02 32.96 32.34 32.32 32.06 32.10 31.86 31.48 30.77 34.04 40.17 42.40 40.93 38.69 39.51 39.47 39.77 40.90 41.58
33.79 33.45 33.38 33.17 32.50 31.98 31.36 30.68 30.27 29.73 29.79 30.42 32.09 40.54 42.26 42.96 40.14 39.89 40.58 40.01 39.02 39.63
33.18 33.05 33.06 32.30 31.77 30.91 30.37 29.89 28.96 30.07 31.08 31.15 33.16 40.80 42.30 43.20 40.55 39.93 39.82 39.59 40.16 39.09
33.15 32.62 32.36 31.66 31.09 30.63 29.36 29.15 30.02 31.15 30.87 30.56 32.05 39.92 42.27 41.18 39.33 39.57 39.26 40.40 39.42 39.81
33.06 32.46 31.86 31.47 30.67 29.47 29.42 30.37 31.46 31.09 31.74 34.86 35.04 39.38 41.10 40.88 39.68 39.01 38.42 38.94 39.30 42.18
33.20 32.32 31.98 30.89 29.00 29.35 29.35 29.50 28.90 31.03 32.74 33.84 35.78 37.04 41.21 42.12 39.72 39.22 38.62 39.04 39.19 38.94

GFSNIL_sfc_wetblb_084.txt.gz
Wetbulb
41.59 41.57 40.72 40.21 38.90 38.33 38.28 38.06 38.51 38.22 37.57 37.32 37.25 36.76 35.69 34.89 34.69 33.92 33.44 32.56 32.06 32.72
39.41 39.54 38.99 37.69 37.60 37.59 37.41 39.98 37.14 36.29 35.70 35.38 35.22 34.84 33.82 33.12 32.69 32.38 32.00 31.93 31.88 31.31
37.28 37.33 37.14 36.90 36.65 36.62 36.04 35.78 35.46 35.22 34.69 34.56 34.34 33.85 32.58 31.73 31.93 31.22 31.47 32.68 31.35 31.03
36.59 36.60 36.47 36.40 35.89 35.59 34.92 34.54 34.71 34.69 34.37 34.08 33.69 33.29 31.93 31.58 31.85 31.59 31.43 31.54 31.39 31.97
36.55 36.06 35.46 35.11 34.57 34.30 33.83 33.94 33.92 33.87 33.63 33.32 33.17 32.71 31.93 31.66 32.36 31.54 31.54 32.17 32.17 33.14
35.48 35.15 34.27 33.55 33.28 33.20 32.94 32.89 33.11 33.07 32.56 32.81 33.16 32.76 32.50 32.18 31.96 32.38 32.89 33.63 33.92 34.44
34.58 34.12 33.31 32.87 32.83 32.91 32.59 32.09 32.04 32.19 32.53 33.00 32.93 32.62 32.49 32.41 32.48 32.75 34.34 35.16 35.32 35.37
34.66 33.65 32.78 32.63 32.72 32.57 32.25 32.57 32.08 31.90 32.19 32.07 32.34 34.15 32.74 33.56 33.63 33.84 34.22 36.88 37.00 37.07
34.37 33.31 32.70 32.41 32.34 31.91 31.82 31.37 31.43 31.18 30.72 29.85 33.15 39.65 41.90 40.53 36.91 36.76 37.97 38.68 38.41 40.42
33.75 33.16 32.71 32.56 32.03 31.55 30.85 30.15 29.88 29.34 29.30 30.11 31.18 39.95 41.90 42.59 39.69 39.40 39.70 39.76 40.10 38.21
33.08 32.54 32.31 31.63 31.24 30.49 29.88 29.64 28.69 29.33 30.32 30.28 32.00 40.31 41.85 42.60 39.97 39.08 39.00 39.38 39.91 39.07
32.84 31.82 31.67 31.25 30.77 30.35 29.25 28.10 29.22 30.25 29.92 29.28 30.59 39.22 41.56 40.49 38.31 38.67 38.83 39.72 40.34 39.21
32.49 31.76 31.32 30.96 30.39 29.62 27.89 29.34 30.69 30.52 30.03 33.37 33.93 38.64 41.15 40.67 38.93 38.22 38.47 38.56 38.76 41.82
32.39 31.55 31.46 30.49 29.15 28.07 28.51 28.86 28.69 29.36 31.45 32.46 34.06 35.43 40.39 41.21 38.63 37.95 38.76 38.47 38.54 39.34

GFSNIL_sfc_wetblb_087.txt.gz
Wetbulb
48.18 48.56 48.17 47.92 47.31 46.64 46.43 46.31 45.72 45.38 45.20 44.58 44.39 44.43 44.28 44.24 43.88 43.33 42.62 42.09 41.91 41.61
47.12 46.56 45.80 45.29 45.58 45.64 45.42 44.96 43.85 43.45 43.34 43.11 43.07 42.83 42.45 42.30 41.93 41.59 41.36 41.08 40.97 40.42
44.17 44.46 44.20 44.62 44.29 44.25 43.60 43.14 42.86 42.72 42.51 42.30 41.94 41.64 41.21 40.99 40.95 40.03 40.41 40.27 39.94 40.12
42.95 43.07 43.54 43.64 43.16 43.19 42.56 42.20 41.87 41.46 41.20 40.95 41.03 41.17 40.33 40.12 39.88 39.30 39.71 39.97 39.46 39.34
42.84 42.94 43.25 42.95 42.43 41.93 41.75 41.09 40.74 40.40 40.22 40.08 40.01 40.28 39.64 39.27 39.58 38.79 38.51 38.94 39.26 39.23
42.16 42.38 42.26 41.72 40.99 40.45 40.27 40.27 40.23 39.70 39.34 39.29 39.48 39.34 39.55 39.16 38.66 38.53 38.57 38.75 38.94 39.22
41.65 41.40 41.10 40.29 39.87 39.76 39.70 39.30 39.65 39.42 38.83 38.72 38.77 38.55 38.40 38.22 38.19 38.93 39.39 39.79 39.92 40.03
41.25 40.64 39.71 39.48 39.35 39.16 39.14 39.23 38.74 38.31 38.74 38.57 37.92 37.85 38.89 40.09 40.35 39.87 39.48 40.03 40.26 40.60
40.37 39.81 39.38 38.96 38.74 38.75 38.81 38.85 38.58 38.28 37.36 36.59 37.07 39.87 41.97 41.39 39.87 40.35 40.36 40.17 41.07 42.09
39.42 39.24 39.13 38.54 38.09 38.29 38.34 38.20 37.58 37.13 36.50 36.59 37.51 40.18 41.53 42.30 41.03 40.07 40.53 40.61 40.29 40.26
38.85 38.48 38.38 37.71 37.65 37.78 37.69 37.17 36.57 35.86 36.37 36.53 36.61 39.79 41.56 42.42 40.56 39.77 39.05 39.49 40.14 40.62
38.50 37.91 37.26 36.95 37.25 37.54 36.60 36.33 35.58 35.99 35.90 35.45 35.33 39.18 41.33 40.99 38.91 39.54 39.53 40.20 41.11 40.97
37.80 37.01 36.88 37.15 36.92 36.56 35.45 34.58 35.43 35.18 35.43 36.16 35.86 38.82 40.77 40.70 38.43 38.30 39.19 39.75 39.75 41.98
37.59 36.96 37.06 36.55 36.17 35.18 34.67 34.43 34.47 34.07 35.09 35.84 36.95 37.56 40.70 41.39 38.75 39.05 38.78 38.78 39.20 40.18

GFSNIL_sfc_wetblb_090.txt.gz
Wetbulb
53.87 53.95 54.13 53.93 54.23 54.07 53.59 52.76 51.52 51.26 51.27 50.13 49.83 50.02 49.45 49.00 48.53 48.24 47.54 46.92 46.49 45.86
53.13 53.33 52.92 52.37 52.34 52.07 51.41 50.42 49.98 49.72 49.22 48.81 48.34 47.59 47.20 46.81 46.42 46.33 45.79 45.36 45.30 44.72
51.49 51.19 50.96 50.80 49.96 49.82 49.60 48.87 48.43 48.20 48.05 47.28 46.60 46.42 46.18 45.68 45.72 44.98 44.97 44.63 44.05 43.94
49.47 49.52 49.50 49.37 48.98 48.89 48.81 48.34 47.50 46.51 45.79 45.62 45.51 45.59 45.12 44.81 44.59 43.72 43.66 43.97 43.30 42.76
48.74 48.53 48.35 48.20 48.27 48.13 47.53 46.74 45.85 45.19 44.67 44.66 44.65 44.83 44.18 43.51 43.67 42.99 42.48 42.57 42.34 41.84
47.41 47.59 48.04 47.82 47.19 46.41 45.73 45.43 44.99 44.45 44.18 44.07 44.00 43.72 43.78 43.43 42.98 42.66 42.39 42.01 41.51 41.38
46.80 47.07 47.27 46.73 45.63 45.09 44.98 44.25 44.48 44.65 44.22 43.70 43.44 43.18 42.88 42.53 42.09 42.17 42.58 42.77 42.61 42.14
46.28 46.46 45.86 45.13 44.75 44.59 44.23 44.22 44.48 43.80 43.74 43.71 43.06 42.47 42.15 42.35 42.58 42.40 41.91 42.13 42.32 42.79
45.66 45.50 45.01 44.71 44.49 44.34 44.20 44.23 44.27 43.71 43.26 42.56 42.03 42.29 42.21 42.56 41.55 41.19 41.33 41.20 41.12 41.57
44.87 44.10 44.49 44.45 44.02 43.55 43.71 44.07 43.45 43.20 42.76 41.73 42.04 42.66 42.91 42.36 41.45 40.99 41.24 41.14 40.95 40.34
44.27 43.85 44.10 43.88 43.61 43.54 43.62 42.81 42.47 41.91 41.44 41.31 41.29 41.83 41.43 42.00 41.13 40.18 40.11 40.02 41.24 41.37
43.93 43.32 43.13 42.72 42.71 42.83 42.41 42.09 41.59 41.30 40.80 40.08 39.30 40.47 41.35 41.10 39.66 39.77 40.18 40.55 41.89 41.35
43.46 42.78 42.37 42.71 42.27 42.30 41.90 40.70 40.67 39.89 39.79 39.24 38.74 40.41 40.89 40.78 40.34 38.93 40.09 40.49 40.82 42.37
43.10 42.64 42.65 42.23 42.14 41.30 40.36 39.71 39.13 38.12 38.65 39.29 39.90 39.14 40.75 41.22 39.61 39.55 39.25 40.09 40.65 41.37

GFSNIL_sfc_wetblb_093.txt.gz
Wetbulb
56.39 55.47 54.86 55.13 54.95 54.90 54.85 54.57 53.95 53.10 52.70 51.73 51.24 50.93 50.39 49.91 49.68 49.26 48.34 48.30 47.83 47.32
53.98 54.63 54.43 54.53 54.47 53.90 53.35 52.37 51.63 51.03 50.22 49.59 49.14 48.69 48.52 47.73 47.25 47.27 46.77 46.04 46.17 45.64
53.97 53.96 53.46 52.83 51.67 51.37 51.05 50.20 49.68 49.27 48.80 48.31 47.98 47.61 47.23 46.56 46.44 45.46 45.96 45.56 44.55 44.62
51.66 51.42 51.26 50.93 50.48 50.16 49.73 49.08 48.22 47.65 47.09 46.79 46.41 46.27 45.61 45.27 45.06 44.25 44.19 44.93 44.35 43.88
50.39 50.27 49.78 49.29 49.13 48.87 48.14 47.92 47.01 46.68 45.92 45.46 45.24 45.35 44.71 44.04 44.11 43.46 43.04 43.34 43.56 43.10
48.93 48.97 48.65 48.29 47.99 47.39 46.65 46.47 46.30 45.55 44.80 44.74 44.75 44.49 44.35 43.95 43.45 43.16 42.91 42.94 42.57 42.48
48.17 48.01 47.68 47.34 46.63 46.08 46.04 45.30 45.06 45.13 44.93 44.81 44.47 44.17 43.87 43.47 42.93 42.60 42.76 43.21 43.80 43.40
47.22 46.96 46.43 45.89 45.75 45.71 45.44 45.02 45.12 44.72 44.65 44.63 44.32 43.88 43.38 42.77 42.01 42.00 42.09 42.57 42.12 42.59
46.16 45.97 45.71 45.66 45.44 45.36 45.13 45.03 44.94 44.62 44.22 43.80 43.68 45.16 44.53 43.20 41.88 41.60 40.66 40.51 41.73 42.70
45.32 44.79 45.00 45.27 44.89 44.63 44.45 44.84 44.23 43.95 43.78 43.03 43.11 44.72 44.60 44.19 41.40 40.16 40.69 40.60 40.46 40.13
44.69 44.48 44.77 44.54 44.17 44.21 44.37 43.82 43.37 43.12 43.16 42.51 42.59 44.24 43.42 42.40 40.57 40.55 39.95 40.45 40.62 40.53
44.64 43.97 43.84 43.47 43.54 43.70 43.29 42.96 42.61 42.60 41.95 41.34 41.03 42.24 41.95 41.25 39.30 38.79 39.96 41.11 41.47 41.33
44.51 43.78 43.32 43.46 43.09 43.35 43.00 42.18 42.07 41.30 41.37 41.19 39.07 41.54 42.03 40.76 39.35 38.07 39.06 39.89 40.96 42.61
44.30 43.75 43.53 43.07 43.10 42.50 41.86 41.28 40.59 40.09 39.67 39.30 39.96 39.56 40.91 41.48 39.25 39.38 38.70 39.28 40.10 41.51

GFSNIL_sfc_wetblb_096.txt.gz
Wetbulb
52.05 50.42 50.97 52.08 51.56 51.59 49.20 49.05 48.55 47.79 47.27 46.87 47.00 45.89 44.71 43.59 43.40 42.83 41.73 41.00 40.58 40.35
50.09 51.66 51.44 51.25 51.02 48.73 47.73 48.82 46.66 46.37 45.08 44.49 44.28 43.80 42.61 41.39 40.78 40.59 39.90 39.43 38.99 38.23
51.70 51.84 50.70 49.47 47.03 45.90 45.07 45.17 44.92 44.61 43.91 43.57 43.05 42.31 41.07 40.27 40.57 39.44 39.07 39.92 38.52 37.59
49.62 49.24 48.21 45.87 45.31 44.70 44.25 44.16 43.84 43.60 42.86 42.30 41.63 40.82 39.31 38.88 39.22 38.56 37.95 38.12 38.17 38.14
46.92 45.30 44.31 43.74 43.58 44.07 43.16 43.40 42.76 42.32 41.58 40.93 40.64 39.88 38.91 38.55 38.72 37.93 37.34 37.59 37.61 37.60
43.89 43.27 42.47 42.25 42.38 42.38 41.55 41.13 41.30 41.15 40.28 40.35 40.41 39.77 39.39 38.97 38.52 37.98 37.68 37.52 37.08 37.14
42.33 42.23 41.79 41.62 41.42 41.28 40.81 39.74 39.35 39.52 40.12 40.60 40.27 40.32 39.94 39.44 38.10 37.37 38.07 38.85 39.10 38.66
41.95 41.75 41.38 40.84 40.77 40.73 40.16 39.91 39.84 39.68 39.91 39.97 40.22 41.46 38.64 38.81 37.59 36.99 37.39 38.71 38.86 39.13
41.99 41.66 40.93 40.70 40.50 39.98 39.74 39.29 39.41 39.11 39.21 38.54 41.68 45.72 46.15 44.29 37.98 39.75 38.39 35.98 37.07 37.60
41.35 40.81 40.50 40.56 39.97 39.15 38.49 38.54 38.11 37.95 38.27 37.80 38.02 45.19 45.56 45.60 41.23 36.63 35.16 35.80 36.60 37.60
40.66 40.25 40.05 39.34 38.57 37.97 37.83 37.41 37.19 37.41 37.79 37.09 38.93 44.69 45.09 44.32 36.31 35.64 36.61 38.10 37.65 37.17
40.16 39.18 39.05 38.43 37.78 37.81 37.22 36.84 36.87 37.59 36.77 35.98 35.91 43.19 42.95 41.35 37.58 38.14 38.15 39.00 37.98 37.59
40.02 39.14 38.39 37.74 37.35 37.60 37.12 37.48 38.02 37.04 36.48 39.76 34.75 40.85 42.25 40.74 38.25 37.13 36.64 37.92 38.43 41.85
39.63 38.76 38.28 37.29 36.98 36.31 36.30 36.42 35.37 36.43 35.09 34.06 35.07 34.50 41.13 41.83 38.74 37.52 36.31 36.50 37.09 38.11

GFSNIL_sfc_wetblb_099.txt.gz
Wetbulb
51.37 50.43 49.33 48.93 50.15 48.54 50.13 49.52 48.02 47.26 46.17 45.97 45.53 44.45 43.13 41.83 41.63 40.26 39.50 38.53 37.99 38.20
48.48 48.94 48.66 49.82 48.69 48.98 47.67 48.31 46.94 44.15 42.88 42.63 42.57 41.95 40.83 39.79 39.34 38.81 37.94 37.32 36.96 36.27
49.77 49.24 49.11 47.51 46.49 45.80 46.03 45.44 43.21 42.67 42.29 41.90 41.35 40.60 39.34 38.45 38.51 37.57 36.88 38.04 36.47 35.52
47.98 47.87 46.63 46.50 45.78 45.13 44.58 42.76 42.41 42.18 41.34 40.92 40.12 39.13 37.66 36.75 37.20 36.41 35.74 35.89 35.89 36.27
46.51 43.83 45.28 44.30 43.07 42.53 41.37 41.65 41.19 40.60 40.16 39.66 39.28 38.15 37.42 36.85 36.65 35.91 35.54 35.75 35.69 35.86
43.12 42.48 40.34 39.63 39.83 40.12 39.69 39.58 39.82 39.74 39.25 39.04 38.80 38.19 37.72 37.46 37.15 36.53 35.86 35.57 35.17 35.41
39.43 39.29 39.02 39.18 39.16 39.37 38.68 38.04 37.63 37.78 38.50 39.19 38.89 38.84 38.52 37.97 36.45 35.76 36.60 37.27 37.41 37.15
39.27 39.36 39.36 39.11 38.92 38.81 38.57 38.19 38.19 38.16 38.39 38.17 38.51 39.97 37.33 37.48 36.64 35.72 35.93 37.09 37.71 37.80
40.06 39.97 39.25 38.97 38.65 38.16 37.85 37.63 37.97 37.50 37.21 36.79 40.03 44.97 45.91 44.67 37.41 37.80 39.94 38.99 35.25 35.53
39.48 39.14 38.83 38.55 37.94 37.09 36.09 35.75 35.62 35.83 36.14 35.93 36.14 44.79 45.65 45.74 40.72 38.39 35.07 33.82 34.40 35.53
38.76 38.27 37.74 37.43 36.64 36.06 35.71 35.23 35.09 35.54 35.76 35.06 37.10 44.18 44.64 44.64 36.52 33.83 34.12 36.53 37.85 37.63
37.82 37.40 37.33 36.49 35.73 35.55 35.23 35.06 35.19 35.76 35.13 34.32 34.49 43.05 43.11 40.59 35.45 36.27 37.29 38.45 38.39 37.33
38.08 37.49 36.63 35.75 35.47 35.67 35.17 35.83 36.43 35.68 35.00 37.98 32.85 39.49 41.71 40.16 35.44 34.96 37.75 38.22 36.47 40.86
37.54 36.90 36.16 35.01 34.78 34.44 34.18 34.15 33.16 33.17 31.39 31.85 34.39 33.94 41.04 41.57 38.09 37.06 36.22 36.32 37.73 39.19

GFSNIL_sfc_wetblb_102.txt.gz
Wetbulb
56.22 55.30 54.24 52.42 50.52 48.31 47.98 48.30 47.49 48.26 46.18 45.95 44.82 43.77 42.73 41.25 40.68 39.01 38.26 37.41 36.93 37.18
53.97 51.67 51.03 50.55 50.39 48.94 48.57 47.83 46.23 46.09 44.62 42.83 42.76 41.16 40.16 38.86 38.43 37.88 36.91 36.47 35.89 35.33
49.48 49.54 48.76 47.82 46.15 46.26 44.00 45.06 43.37 42.69 42.52 40.81 40.02 39.11 38.64 37.51 37.20 36.93 35.75 36.60 35.03 33.97
47.57 47.06 46.12 45.68 45.17 43.20 44.43 42.97 43.12 41.58 40.45 39.89 38.69 37.61 36.52 36.04 36.18 35.60 34.68 34.46 34.57 34.94
45.71 43.72 44.87 43.65 41.89 43.84 41.51 40.67 40.32 39.92 39.19 38.62 38.17 37.02 36.69 36.52 36.13 35.43 34.90 34.85 34.46 34.73
42.27 42.30 39.99 41.01 40.57 39.40 38.91 38.48 38.71 38.58 38.16 37.92 37.69 37.03 36.58 36.64 36.34 35.58 34.93 34.74 34.32 34.84
39.14 39.89 38.11 37.61 37.47 37.42 36.90 36.54 36.35 36.91 37.61 38.09 37.87 37.72 37.33 36.80 35.67 35.03 35.45 36.00 36.11 36.00
37.64 37.86 37.85 37.61 37.48 37.60 37.48 37.13 37.21 36.99 36.94 36.65 37.24 38.72 36.68 36.71 35.92 35.13 34.87 35.98 36.60 37.68
38.80 38.51 37.73 37.48 37.02 36.75 36.33 35.88 36.00 35.74 35.92 35.53 38.93 44.28 45.69 44.58 37.21 37.03 36.57 36.33 37.85 36.06
38.19 37.81 37.22 36.93 36.67 35.80 34.87 34.58 34.48 34.79 35.15 34.87 35.13 43.99 45.33 45.50 39.10 36.84 34.60 34.46 33.62 34.36
37.16 36.64 36.47 36.10 35.33 34.73 34.31 34.29 34.21 34.56 34.61 33.96 35.96 43.66 44.15 44.29 34.40 33.49 33.68 33.73 33.99 34.31
36.80 36.29 35.96 35.38 34.75 34.73 34.40 34.24 34.13 34.77 34.02 32.75 32.95 41.34 42.42 40.39 34.41 34.17 33.96 35.90 36.71 37.01
36.56 36.08 35.40 34.62 34.19 34.18 33.81 34.36 34.83 33.80 31.33 35.85 31.48 38.52 41.14 40.22 35.19 32.66 34.59 35.55 36.11 40.09
36.09 35.48 34.79 33.73 33.27 32.88 32.78 32.27 29.99 30.15 30.34 31.19 32.43 32.70 39.45 40.84 36.09 35.21 35.52 34.89 35.57 37.50

GFSNIL_sfc_wetblb_105.txt.gz
Wetbulb
56.77 54.29 54.15 53.87 52.87 51.84 50.42 47.78 47.59 47.69 46.14 45.89 44.59 44.22 42.62 41.46 40.23 39.15 38.31 37.17 36.75 36.72
55.45 55.37 55.35 53.55 51.12 50.54 49.05 47.83 47.80 46.70 43.74 44.03 42.49 41.94 40.35 39.33 38.00 37.11 35.77 35.28 35.03 34.50
54.25 53.90 50.90 48.96 48.71 47.67 45.54 45.07 44.39 42.37 41.39 41.56 40.80 39.90 38.75 37.04 36.39 36.18 35.02 35.52 34.48 33.32
46.87 46.72 46.19 45.74 44.82 43.19 43.01 41.98 42.79 41.52 40.75 39.57 37.95 37.04 35.99 35.41 35.41 35.22 34.50 33.93 34.07 34.27
45.02 44.27 42.28 41.73 43.29 41.58 40.53 40.72 41.08 39.51 38.80 37.79 37.07 35.93 35.73 35.95 35.76 35.07 34.49 34.31 33.70 34.11
41.69 40.18 40.96 39.35 39.47 39.16 38.56 37.84 37.90 37.72 37.27 36.86 36.74 36.23 35.89 35.99 35.66 34.91 34.45 34.23 33.65 34.04
37.51 37.12 36.92 36.79 36.99 36.45 36.00 35.75 35.66 36.15 36.75 37.04 36.66 36.48 36.19 35.65 34.56 34.15 34.66 34.92 34.69 34.79
36.50 36.72 36.81 36.61 36.38 36.32 36.29 35.84 36.02 36.02 36.06 35.81 36.34 37.66 35.33 35.48 34.72 34.50 34.37 34.83 35.17 35.90
37.57 37.25 36.49 36.11 35.78 35.72 35.35 35.05 35.16 34.85 34.99 34.60 38.25 43.89 45.35 43.84 37.10 36.77 35.89 35.08 35.73 35.90
37.10 36.59 35.94 35.87 35.78 35.04 34.14 33.85 33.87 34.16 34.52 34.43 34.56 43.40 45.02 45.24 38.59 36.32 34.48 32.96 32.75 33.41
35.99 35.68 35.56 35.31 34.63 33.91 33.69 33.72 33.66 33.90 33.84 33.01 34.91 42.82 44.01 44.01 34.01 33.02 33.16 33.18 33.19 32.84
35.75 35.26 35.10 34.43 33.68 33.59 33.44 33.00 32.84 33.49 32.89 31.47 31.36 40.77 42.06 40.60 34.37 33.55 33.13 33.91 34.81 35.10
35.49 35.04 34.45 33.86 33.27 33.18 32.51 33.26 33.53 32.26 29.71 34.97 30.27 37.42 40.11 39.03 34.69 32.73 32.77 33.93 35.07 40.02
34.65 34.02 33.34 32.50 32.12 31.74 31.59 30.61 28.36 29.27 29.64 30.07 31.31 32.22 39.19 40.02 35.37 34.77 35.62 35.47 35.45 35.54

GFSNIL_sfc_wetblb_108.txt.gz
Wetbulb
58.19 58.78 57.72 55.64 53.89 52.75 52.49 52.68 49.12 48.00 47.51 46.84 46.23 44.29 43.28 41.93 40.67 40.26 39.72 38.14 37.69 37.10
58.04 55.61 54.76 54.66 54.88 54.25 52.33 50.07 49.55 47.73 45.81 44.36 44.43 43.51 41.14 40.15 38.38 38.23 36.48 35.76 35.31 34.66
55.81 56.18 55.75 54.10 51.57 49.32 48.60 47.65 46.02 44.24 42.49 41.39 40.97 40.01 39.82 38.26 36.82 36.16 34.84 35.00 34.01 33.12
50.55 48.81 47.95 46.88 45.77 44.56 43.84 42.99 41.90 41.58 40.13 39.53 39.50 38.72 36.84 35.87 35.18 34.73 34.09 33.70 34.13 33.80
44.55 43.27 42.10 41.48 41.41 42.27 41.80 41.21 40.00 39.42 38.86 38.01 37.07 35.85 35.54 35.37 35.21 34.46 33.85 33.80 33.34 33.65
40.88 40.92 38.73 37.76 37.81 38.06 37.59 37.37 37.54 37.45 36.78 36.37 36.23 35.58 35.17 35.26 34.79 34.15 33.87 33.53 33.05 33.53
37.15 36.82 36.00 35.76 35.68 35.74 35.58 35.40 35.24 35.51 36.06 36.32 35.86 35.69 35.49 35.00 33.85 33.29 33.92 34.21 33.99 33.66
36.08 36.27 36.37 36.11 35.87 35.87 35.71 35.32 35.63 35.62 35.53 35.12 35.87 37.37 34.73 34.63 33.89 33.58 33.97 34.61 34.42 34.78
36.55 36.12 35.48 35.36 35.10 35.11 34.77 34.45 34.62 34.24 34.40 34.20 37.74 43.85 45.07 42.45 36.50 36.63 35.71 34.92 35.39 35.26
35.87 35.44 34.97 35.06 34.94 34.15 33.33 33.41 33.45 33.65 33.83 33.57 33.68 43.09 44.74 44.89 38.29 35.89 34.65 33.85 32.71 32.91
35.29 34.99 34.78 34.66 34.04 33.28 33.19 32.93 32.73 33.04 33.18 32.55 34.36 42.11 43.43 43.68 34.12 32.74 32.61 32.64 32.60 32.15
34.87 34.47 34.33 33.65 32.86 32.50 32.37 31.92 31.82 32.66 32.08 30.64 30.54 39.73 41.26 39.63 33.85 33.39 32.98 33.67 33.41 33.01
34.42 34.05 33.43 32.57 31.96 31.86 31.29 32.41 32.25 30.62 28.90 33.56 29.62 36.63 40.03 39.01 33.90 31.54 32.44 32.76 33.61 40.23
33.15 32.61 31.99 31.19 30.83 30.23 29.84 28.39 27.27 27.73 28.54 29.31 30.79 31.81 38.78 39.83 35.17 34.74 34.43 35.45 35.45 34.27

GFSNIL_sfc_wetblb_111.txt.gz
Wetbulb
59.24 58.65 58.28 55.96 55.29 53.48 52.75 52.60 52.29 49.61 48.90 48.31 48.93 49.68 49.41 48.67 47.59 48.11 48.23 47.89 46.98 46.50
59.64 58.77 57.33 57.03 55.80 55.10 54.22 54.12 53.08 50.15 48.25 47.45 47.27 46.80 47.69 46.63 46.20 46.15 45.45 44.77 44.58 44.48
58.75 57.24 56.48 55.58 54.51 54.45 53.37 51.54 50.19 48.20 46.60 45.17 45.01 45.93 45.38 44.34 44.27 43.91 42.83 42.91 42.84 42.68
52.82 51.49 50.51 49.66 48.84 48.25 47.66 47.63 45.78 44.79 44.35 44.58 44.38 44.53 44.54 43.90 42.98 42.79 42.65 42.20 42.16 41.91
44.94 44.04 43.28 43.09 43.84 44.95 43.51 43.97 43.79 44.06 43.62 43.10 42.85 43.04 43.12 42.36 42.15 42.22 41.70 41.97 41.80 42.02
42.37 42.12 41.71 41.75 42.01 42.83 43.26 43.36 43.02 43.02 42.43 41.76 41.60 41.70 41.99 42.31 41.92 41.95 42.09 42.09 41.58 41.95
40.48 40.41 40.58 40.87 40.64 40.57 41.27 41.22 41.36 41.48 41.28 41.18 41.38 41.51 41.58 41.56 41.62 41.32 41.23 41.12 41.20 41.60
40.45 40.95 41.11 41.12 41.14 41.38 41.41 41.09 41.40 41.59 41.35 41.35 41.68 42.05 42.50 42.07 41.61 41.51 41.72 41.87 41.64 41.75
40.78 40.79 40.48 40.60 40.66 40.86 40.59 40.61 41.11 40.81 40.71 41.09 41.47 44.04 45.23 45.34 43.81 43.46 42.49 42.21 42.77 42.56
40.61 40.22 40.22 40.51 40.56 40.20 39.95 40.47 40.16 39.97 40.01 40.08 40.46 42.96 44.48 44.66 42.66 40.73 40.15 39.66 39.58 39.16
40.12 39.62 39.68 39.84 39.64 39.58 40.05 39.68 39.88 39.76 39.36 39.17 39.42 41.85 43.20 43.41 41.16 40.01 39.53 39.32 39.25 39.09
39.95 39.58 39.61 39.21 39.02 39.04 39.54 39.19 38.65 38.46 37.95 37.05 37.24 39.32 40.97 41.01 39.63 38.54 38.38 38.89 39.17 38.98
39.29 39.04 38.44 38.20 38.02 37.88 37.72 37.37 36.83 35.65 35.32 35.57 35.97 37.52 39.89 39.54 38.34 37.12 37.28 38.18 38.49 40.05
37.73 37.14 36.98 36.77 36.63 35.93 35.21 34.50 34.16 34.29 35.41 35.58 36.22 37.06 38.96 39.71 37.59 36.93 36.63 36.68 36.99 38.37

GFSNIL_sfc_wetblb_114.txt.gz
Wetbulb
58.11 55.49 55.35 54.24 53.73 54.44 54.08 54.75 54.83 53.57 53.50 51.82 51.45 51.87 52.44 52.85 52.67 52.98 53.16 53.05 52.90 52.64
59.62 59.36 58.26 57.49 56.31 56.25 55.24 54.16 53.94 53.69 53.33 50.41 50.17 49.85 49.28 51.08 51.33 51.87 52.02 52.14 51.36 51.19
59.37 59.10 58.71 56.93 55.76 54.85 54.68 54.19 51.83 51.04 48.92 48.12 48.05 47.85 47.33 48.25 49.23 49.20 48.64 49.01 48.29 48.14
52.28 50.68 50.87 50.76 50.74 51.44 52.04 50.89 49.89 47.98 46.62 45.69 45.98 46.78 47.26 48.63 48.28 47.65 46.80 46.43 46.82 46.22
45.87 45.46 44.83 44.89 46.25 46.95 46.33 48.21 48.01 47.35 47.29 46.83 47.40 47.83 48.18 46.85 46.06 45.75 45.55 45.90 45.04 44.79
44.87 44.73 44.68 45.45 45.96 46.73 47.36 46.99 46.88 47.30 46.64 46.37 46.16 46.14 46.50 46.45 45.91 45.70 45.19 44.40 43.98 44.35
44.57 45.11 45.21 44.81 45.22 45.63 46.31 45.96 45.81 45.71 45.55 45.43 45.33 45.28 45.43 45.54 45.31 45.12 45.27 45.46 45.20 45.07
45.21 45.78 45.74 45.09 45.25 45.51 45.85 45.88 45.86 45.51 45.39 45.41 45.31 45.61 46.36 46.12 45.51 45.41 45.26 45.60 45.54 45.61
45.85 45.50 45.45 45.38 45.14 45.23 45.12 45.17 45.08 44.53 44.20 44.12 44.18 44.37 44.97 45.38 45.73 45.78 45.29 44.72 45.21 45.54
45.44 44.94 44.88 45.02 44.65 44.31 44.10 44.62 44.07 43.77 43.62 43.40 43.94 43.83 44.57 44.55 45.06 44.10 43.92 43.40 43.14 42.79
44.84 44.30 44.49 44.25 43.95 43.88 44.19 43.81 43.44 43.44 43.42 43.06 43.01 41.68 42.71 42.99 43.30 42.98 42.56 42.21 41.76 41.23
44.34 43.57 43.58 43.45 43.49 43.69 43.63 43.37 42.79 42.51 41.71 40.98 41.28 40.06 40.81 41.16 40.93 40.50 40.50 40.95 41.08 40.84
43.57 43.34 42.87 43.16 42.91 43.24 43.00 41.68 41.14 40.14 40.24 39.07 39.42 39.68 39.81 40.18 39.74 39.05 39.44 40.32 39.88 40.36
43.08 42.43 42.45 42.58 41.82 41.18 40.26 39.69 39.24 38.79 39.31 39.03 39.10 39.24 39.24 39.78 38.26 37.39 36.93 36.79 37.58 38.61

GFSNIL_sfc_wetblb_117.txt.gz
Wetbulb
55.39 54.45 53.46 53.97 54.35 54.39 54.46 54.89 54.16 53.61 53.12 52.89 52.31 51.16 51.22 52.33 54.28 54.56 54.05 54.48 54.75 54.42
57.94 57.28 56.20 55.21 54.82 56.23 55.33 55.51 54.65 53.71 53.10 52.35 50.62 50.06 51.12 52.36 52.37 52.71 52.90 53.01 53.53 52.99
59.19 58.40 57.94 57.35 56.27 55.84 54.59 53.85 52.98 50.05 49.33 49.06 49.46 49.57 50.48 50.19 50.05 49.16 48.43 48.98 49.96 50.00
50.62 50.52 50.57 50.03 51.28 52.75 52.57 52.32 50.78 50.29 49.43 48.54 48.15 47.44 46.53 46.20 45.92 46.33 46.86 47.00 48.33 47.67
46.81 45.86 45.57 46.10 46.61 47.84 49.53 50.11 49.29 48.72 48.03 47.01 46.85 46.29 46.78 47.44 47.93 47.97 47.19 46.85 46.15 45.38
45.79 46.38 46.14 46.02 46.68 47.08 47.78 48.14 49.31 49.01 48.12 47.95 48.06 47.99 47.65 47.24 46.61 46.42 46.19 45.63 44.41 44.26
45.72 45.60 46.35 46.83 47.15 47.07 47.41 46.82 46.62 46.51 46.32 46.25 46.04 45.97 45.72 45.62 45.48 45.40 45.30 45.21 45.31 44.97
46.06 46.49 46.41 46.26 46.29 46.40 46.37 46.26 46.29 45.80 45.78 45.95 45.52 46.09 46.18 46.38 45.99 45.42 45.18 45.72 45.73 45.90
45.88 45.98 45.71 45.71 45.41 45.36 45.26 45.09 44.92 44.38 44.18 44.26 44.27 44.85 45.08 44.86 44.41 44.60 44.37 44.24 44.56 44.77
45.72 45.14 45.04 45.01 44.74 44.46 44.43 44.66 44.16 43.89 44.01 43.51 44.26 43.84 44.03 44.10 43.58 43.27 43.47 43.12 42.76 42.44
45.02 44.34 44.44 44.49 44.25 44.18 44.48 43.95 43.57 43.24 43.15 42.82 42.74 42.38 42.17 42.49 41.74 41.75 41.85 41.97 41.70 41.14
44.40 43.79 44.01 43.57 43.62 43.71 43.51 43.24 42.63 42.35 41.59 40.70 40.79 41.09 40.73 40.78 39.63 39.42 39.64 40.63 41.21 41.00
43.99 43.59 43.15 43.42 42.96 43.05 42.67 41.49 41.24 40.39 40.67 40.49 39.50 40.96 40.87 40.34 39.30 38.43 38.83 39.31 39.36 40.46
43.91 43.15 43.08 42.68 42.01 41.30 40.32 40.09 39.53 39.14 39.66 39.81 40.23 39.80 40.02 39.95 38.06 37.27 36.88 36.86 37.10 37.99